Weather Roundup
Issued by NWS

Home | Current Version | Previous Version | Text Only | Print | Product List | Glossary On
Versions: 1 2 3 4 5 6 7 8 9 10 11 12 13 14 15 16 17 18 19 20 21 22 23 24 25 26 27 28 29 30 31 32 33 34 35 36 37 38 39 40 41 42 43 44 45 46 47 48 49 50
164
NZUS93 KARX 082110
HRRWXR

CURRENT HOURLY OBSERVATIONS ACROSS
MUCH OF THE UPPER MISSISSIPPI VALLEY
NATIONAL WEATHER SERVICE LA CROSSE WI
300 PM CST MON FEB 08 2016


...SOUTHEAST MINNESOTA...


CITY           SKY/WX    TMP DP  RH WIND       PRES   REMARKS
ROCHESTER      CLOUDY    13   5  70 NW28G36   29.86R BLWGSNOWWCI  -8
ROCHESTER/MAYO CLOUDY    14   5  68 W20G32    29.88R WCI  -3
WINONA         CLOUDY    18   9  68 NW18G29   29.89R WCI   2
AUSTIN         CLOUDY    12   7  79 NW21G30   29.90R HAZE    WCI  -6
ALBERT LEA     LGT SNOW  14   9  79 NW18G30   29.92R WCI  -3
DODGE CENTER   CLOUDY    14   7  73 NW22G29   29.88R WCI  -4
PRESTON        CLOUDY    13   4  69 N18G25    29.86R WCI  -4
OWATONNA       CLOUDY    16   9  73 NW24      29.93R HAZE    WCI  -3
FARIBAULT      CLOUDY    16   7  67 NW13G18   29.95R WCI   2
$$

...ELSEWHERE IN MINNESOTA...


CITY           SKY/WX    TMP DP  RH WIND       PRES   REMARKS
MINNEAPOLIS    FLURRIES  15   6  67 NW18G26   29.95R WCI  -2
INTNL FALLS    LGT SNOW   6  -2  69 NW15      29.99R WCI -12
DULUTH         FLURRIES  10   1  67 NW20G28   29.84R WCI  -9
RED WING       CLOUDY    18   3  53 N10G20    29.92R WCI   6
REDWOOD FALLS  FLURRIES  18   8  65 NW23G37   30.03S WCI   0
MANKATO        CLOUDY   N/A N/A N/A NW22G30   29.96S
WORTHINGTON    CLOUDY   N/A N/A N/A NW32G38   30.04R VSB 1/2
FAIRMONT       CLOUDY    16   9  73 NW26G33   29.97R VSB 3/4 WCI  -3
$$

...SOUTHWEST WISCONSIN...


CITY           SKY/WX    TMP DP  RH WIND       PRES   REMARKS
LA CROSSE      CLOUDY    18   8  65 NW17      29.85R WCI   3
PRAIRIE DU CHI CLOUDY    21   9  60 NW15      29.83R WCI   8
BOSCOBEL       CLOUDY    23  11  60 NW12G21   29.81R WCI  12
LONE ROCK      CLOUDY    22  12  65 NW14G24   29.78R WCI   9
PLATTEVILLE    CLOUDY    22  15  74 NW16      29.76R WCI   8
FORT MC COY    CLOUDY    20  11  68 NW15G24   29.82R WCI   6
CAMP DOUGLAS   CLOUDY    21  16  79 NW15      29.76R WCI   8
VIROQUA        CLOUDY    19  10  69 NW16      29.77R WCI   4
WIS DELLS      CLOUDY    21  13  72 NW14G20   29.73R WCI   8
$$

...ELSEWHERE IN WISCONSIN...


CITY           SKY/WX    TMP DP  RH WIND       PRES   REMARKS
MILWAUKEE      CLOUDY    26  20  77 NW15      29.66R WCI  14
MADISON        CLOUDY    22  14  71 NW14G22   29.72R WCI   9
GREEN BAY      LGT SNOW  29  22  75 N14       29.67R WCI  18
EAU CLAIRE     CLOUDY    15   5  64 NW15      29.86R WCI   0
BLACK RVR FLS  CLOUDY    20   7  59 NW14      29.82R WCI   6
MEDFORD        FLURRIES  18  11  74 NW18      29.72R WCI   2
WAUSAU         CLOUDY    26  14  60 NW14      29.69R WCI  14
WIS RAPIDS     CLOUDY    20  11  68 NW17      29.75R WCI   5
MARSHFIELD     CLOUDY    21  10  62 NW20      29.72R WCI   6
RICE LAKE      LGT SNOW  14   7  72 W10G16    29.88R WCI   2
$$

...NORTHEAST IOWA...


CITY           SKY/WX    TMP DP  RH WIND       PRES   REMARKS
WATERLOO       CLOUDY    15   7  70 NW23      29.91R WCI  -3
DUBUQUE        CLOUDY    20  12  71 N16       29.78R WCI   6
DECORAH        FLURRIES  14   7  73 N16G25    29.83R WCI  -2
MASON CITY     LGT SNOW  15  10  80 NW31G38   29.94R VSB 1   WCI  -6
CHARLES CITY   FLURRIES  14  10  85 NW22G28   29.90R WCI  -4
OELWEIN        CLOUDY    14   9  79 NW23G31   29.87R HAZE    WCI  -5
$$

...ELSEWHERE IN IOWA...


CITY           SKY/WX    TMP DP  RH WIND       PRES   REMARKS
DES MOINES     FLURRIES  20   8  60 N29G41    30.00R WCI   1
IOWA CITY      FLURRIES  18  10  71 NW18G29   29.89R WCI   2
FORT DODGE     CLOUDY    16   9  73 NW14G23   30.01R WCI   1
MARSHALLTOWN   FLURRIES  16   9  74 NW30G36   29.94R WCI  -4
CEDAR RAPIDS   FLURRIES  17  11  77 NW22      29.86R WCI   0
$$

...NORTHERN ILLINOIS...


CITY           SKY/WX    TMP DP  RH WIND       PRES   REMARKS
CHICAGO-OHARE  CLOUDY    28  21  75 W14       29.68R WCI  17
CHICAGO-MIDWAY CLOUDY    29  21  72 NW12      29.70R WCI  19
MOLINE         CLOUDY    21  12  68 W17G31    29.82R WCI   7
ROCKFORD       CLOUDY    26  17  68 NW14      29.74R WCI  14
PEORIA         FLURRIES  22  13  68 NW10G23   29.82R WCI  11
$$

NOTE: "FAIR" INDICATES FEW OR NO CLOUDS BELOW 12,000 FEET WITH NO
SIGNIFICANT WEATHER AND/OR OBSTRUCTIONS TO VISIBILITY. WIND
SPEEDS ARE IN MILES-PER-HOUR.




USA.gov is the U.S. government's official web portal to all federal, state and local government web resources and services.